Location: Unspecified
(0.0000°N, 0.0000°E)
Time: 19:46:36
(UTC+00:00)

Hubble Space Telescope - Pass Details

Date: 22 June 2017
Orbit: 537 x 541 km, 28.5° (Epoch: 17 December)

Event Time Altitude Azimuth Distance (km) Brightness Sun altitude
Exits shadow 05:30:51 - 273° (W) 2,109 3.2 -7.1°
Reaches altitude 10° 05:31:53 10° 281° (W) 1,787 2.9 -6.9°
Maximum altitude 05:35:03 21° 331° (NNW) 1,236 2.6 -6.2°
Drops below altitude 10° 05:38:12 10° 21° (NNE) 1,784 4.1 -5.5°
Sets 05:40:53 0° 38° (NE) 2,674 5.6 -4.8°
